Location: Finnegan
(51.1333°N, 112.0833°W)
Time: 11:30:37
(UTC+00:00)

X-37B - Visible Passes

Search period start: 05 December 2021 00:00
Search period end: 15 December 2021 00:00
Orbit: 330 x 341 km, 45.0° (Epoch: 20 November)

Date Brightness Start Highest point End Pass type
(mag) Time Alt. Az. Time Alt. Az. Time Alt. Az.
09 Dec 2.9 01:12:24 10° S 01:13:40 12° SSE 01:13:51 12° SSE visible
10 Dec 2.6 01:31:42 10° SSW 01:33:25 18° S 01:33:25 18° S visible
11 Dec 3.0 00:17:51 10° S 00:19:07 12° SSE 00:20:22 10° SE visible
11 Dec 2.8 01:51:37 10° SW 01:52:57 19° SSW 01:52:57 19° SSW visible
12 Dec 2.6 00:37:08 10° SSW 00:39:14 18° SSE 00:41:16 10° ESE visible
12 Dec 3.4 02:11:49 10° WSW 02:12:29 14° SW 02:12:29 14° SW visible
13 Dec 2.2 00:57:03 10° SW 00:59:25 23° S 01:00:49 16° SE visible
14 Dec 2.2 01:17:14 10° WSW 01:19:38 23° S 01:20:24 21° SSE visible
